Time,TemperatureF,DewpointF,PressureIn,WindDirection,WindDirectionDegrees,WindSpeedMPH,WindSpeedGustMPH,Humidity,HourlyPrecipIn,Conditions,Clouds,dailyrainin,SolarRadiationWatts/m^2,SoftwareType,DateUTC
2013-09-18 00:22:00,57.0,36.0,-100.00,NNW,336,0.0,6.0,45,0.00,,,0.00,0.000000,,2013-09-18 07:22:00,
2013-09-18 00:32:00,57.0,36.0,-100.00,NNW,336,0.0,6.0,45,0.00,,,0.00,0.000000,,2013-09-18 07:32:00,
2013-09-18 00:42:00,57.0,36.0,-100.00,NNW,336,0.0,6.0,45,0.00,,,0.00,0.000000,,2013-09-18 07:42:00,
2013-09-18 00:52:00,57.0,36.0,-100.00,NNW,336,0.0,6.0,45,0.00,,,0.00,0.000000,,2013-09-18 07:52:00,
2013-09-18 01:22:00,57.0,36.0,-100.00,NNW,341,3.0,9.0,46,0.00,,,0.00,0.000000,,2013-09-18 08:22:00,
2013-09-18 01:32:00,57.0,36.0,-100.00,NNW,341,3.0,9.0,46,0.00,,,0.00,0.000000,,2013-09-18 08:32:00,
2013-09-18 01:42:00,57.0,36.0,-100.00,NNW,341,3.0,9.0,46,0.00,,,0.00,0.000000,,2013-09-18 08:42:00,
2013-09-18 01:52:00,57.0,36.0,-100.00,NNW,341,3.0,9.0,46,0.00,,,0.00,0.000000,,2013-09-18 08:52:00,
2013-09-18 02:22:00,55.0,36.0,-100.00,NNW,342,2.0,8.0,49,0.00,,,0.00,0.000000,,2013-09-18 09:22:00,
2013-09-18 02:33:00,55.0,36.0,-100.00,NNW,342,2.0,8.0,49,0.00,,,0.00,0.000000,,2013-09-18 09:33:00,
2013-09-18 02:43:00,55.0,36.0,-100.00,NNW,342,2.0,8.0,49,0.00,,,0.00,0.000000,,2013-09-18 09:43:00,
2013-09-18 02:53:00,55.0,36.0,-100.00,NNW,342,2.0,8.0,49,0.00,,,0.00,0.000000,,2013-09-18 09:53:00,
2013-09-18 03:23:00,54.0,36.0,-100.00,NNW,339,1.0,6.0,51,0.00,,,0.00,0.000000,,2013-09-18 10:23:00,
2013-09-18 03:33:00,54.0,36.0,-100.00,NNW,339,1.0,6.0,51,0.00,,,0.00,0.000000,,2013-09-18 10:33:00,
2013-09-18 03:42:00,54.0,36.0,-100.00,NNW,339,1.0,6.0,51,0.00,,,0.00,0.000000,,2013-09-18 10:42:00,
2013-09-18 03:53:00,54.0,36.0,-100.00,NNW,339,1.0,6.0,51,0.00,,,0.00,0.000000,,2013-09-18 10:53:00,
2013-09-18 04:22:00,54.0,38.0,-100.00,NNW,345,1.0,6.0,54,0.00,,,0.00,0.000000,,2013-09-18 11:22:00,
2013-09-18 04:33:00,54.0,38.0,-100.00,NNW,345,1.0,6.0,54,0.00,,,0.00,0.000000,,2013-09-18 11:33:00,
2013-09-18 04:42:00,54.0,38.0,-100.00,NNW,345,1.0,6.0,54,0.00,,,0.00,0.000000,,2013-09-18 11:42:00,
2013-09-18 04:52:00,54.0,38.0,-100.00,NNW,345,1.0,6.0,54,0.00,,,0.00,0.000000,,2013-09-18 11:52:00,
2013-09-18 05:22:00,54.0,38.0,-100.00,NNW,341,2.0,6.0,54,0.00,,,0.00,0.000000,,2013-09-18 12:22:00,
2013-09-18 05:32:00,54.0,38.0,-100.00,NNW,341,2.0,6.0,54,0.00,,,0.00,0.000000,,2013-09-18 12:32:00,
2013-09-18 05:42:00,54.0,38.0,-100.00,NNW,341,2.0,6.0,54,0.00,,,0.00,0.000000,,2013-09-18 12:42:00,
2013-09-18 05:52:00,54.0,38.0,-100.00,NNW,341,2.0,6.0,54,0.00,,,0.00,0.000000,,2013-09-18 12:52:00,
2013-09-18 21:25:00,59.0,38.0,-100.00,NNW,332,0.0,0.0,45,0.00,,,0.00,0.000000,,2013-09-19 04:25:00,
2013-09-18 21:34:00,59.0,38.0,-100.00,NNW,332,0.0,0.0,45,0.00,,,0.00,0.000000,,2013-09-19 04:34:00,
2013-09-18 21:43:00,59.0,38.0,-100.00,NNW,332,0.0,0.0,45,0.00,,,0.00,0.000000,,2013-09-19 04:43:00,
2013-09-18 21:54:00,59.0,38.0,-100.00,NNW,332,0.0,0.0,45,0.00,,,0.00,0.000000,,2013-09-19 04:54:00,
2013-09-18 22:23:00,58.0,37.0,-100.00,NNW,345,2.0,7.0,46,0.00,,,0.00,0.000000,,2013-09-19 05:23:00,
2013-09-18 22:34:00,58.0,37.0,-100.00,NNW,345,2.0,7.0,46,0.00,,,0.00,0.000000,,2013-09-19 05:34:00,
2013-09-18 22:43:00,58.0,37.0,-100.00,NNW,345,2.0,7.0,46,0.00,,,0.00,0.000000,,2013-09-19 05:43:00,
2013-09-18 22:52:00,58.0,37.0,-100.00,NNW,345,2.0,7.0,46,0.00,,,0.00,0.000000,,2013-09-19 05:52:00,
2013-09-18 23:22:00,57.0,38.0,-100.00,NNW,337,1.0,7.0,49,0.00,,,0.00,0.000000,,2013-09-19 06:22:00,
2013-09-18 23:32:00,57.0,38.0,-100.00,NNW,337,1.0,7.0,49,0.00,,,0.00,0.000000,,2013-09-19 06:32:00,
2013-09-18 23:43:00,57.0,38.0,-100.00,NNW,337,1.0,7.0,49,0.00,,,0.00,0.000000,,2013-09-19 06:43:00,
2013-09-18 23:52:00,57.0,38.0,-100.00,NNW,337,1.0,7.0,49,0.00,,,0.00,0.000000,,2013-09-19 06:52:00,